This is the latest recevied weather packets stored in our database for station/object F4NFR-13. If no packets are shown the sender has not sent any weather packets the latest 10 day(s).
| Time | Temp. | Humidity | Pressure | Rain* | Wind** | Luminosity | Snow |
|---|---|---|---|---|---|---|---|
| 1777810256 | 16.11° C | 85% | 1012.3 hPa | 0 mm | - | 229 W/m² | - |
| 1777809954 | 16.11° C | 86% | 1012.3 hPa | 0 mm | - | 0 W/m² | - |
| 1777809652 | 16.11° C | 86% | 1012.3 hPa | 0 mm | - | 0 W/m² | - |
| 1777809047 | 16.11° C | 88% | 1012.3 hPa | 0 mm | - | 0 W/m² | - |
| 1777808744 | 16.11° C | 89% | 1012.3 hPa | 0 mm | - | 0 W/m² | - |
| 1777808442 | 15° C | 91% | 1012.3 hPa | 0 mm | - | 283 W/m² | - |
| 1777808139 | 15° C | 90% | 1012.3 hPa | 0 mm | - | 306 W/m² | - |
| 1777807837 | 15° C | 89% | 1012.3 hPa | 0 mm | - | 312 W/m² | - |
| 1777807535 | 15° C | 89% | 1012.3 hPa | 0 mm | - | 0 W/m² | - |
| 1777807232 | 16.11° C | 86% | 1012.3 hPa | 0 mm | - | - | - |
| 1777806930 | 16.11° C | 86% | 1012.3 hPa | 0 mm | - | 0 W/m² | - |
| 1777806627 | 16.11° C | 84% | 1012.3 hPa | 0 mm | - | 0 W/m² | - |
| 1777806325 | 16.11° C | 86% | 1012.3 hPa | 0 mm | - | 0 W/m² | - |
| 1777806023 | 17.22° C | 84% | 1012.3 hPa | 0 mm | - | 182 W/m² | - |
| 1777805720 | 17.22° C | 87% | 1012.3 hPa | 0 mm | - | 0 W/m² | - |
| 1777805418 | 16.11° C | 88% | 1012.3 hPa | 0 mm | - | - | - |
| 1777805116 | 16.11° C | 88% | 1012.7 hPa | 0 mm | - | 0 W/m² | - |
| 1777804814 | 16.11° C | 90% | 1012.7 hPa | 0 mm | - | 172 W/m² | - |
| 1777804511 | 16.11° C | 92% | 1012.7 hPa | 0 mm | - | 0 W/m² | - |
| 1777804208 | 15° C | 93% | 1012.7 hPa | 0 mm | - | 0 W/m² | - |
| 1777803906 | 15° C | 93% | 1012.7 hPa | 0 mm | - | 196 W/m² | - |
| 1777803603 | 15° C | 92% | 1012.3 hPa | 0 mm | - | 220 W/m² | - |
| 1777803302 | 15° C | 92% | 1012.3 hPa | 0 mm | - | 0 W/m² | - |
| 1777802999 | 15° C | 91% | 1012.3 hPa | 0 mm | - | 290 W/m² | - |
| 1777802696 | 15° C | 91% | 1012.3 hPa | 0 mm | - | 315 W/m² | - |
* Rain latest hour (hover to see other rain measurements)
** Current wind speed in m/s (hover to see current wind gust speed)